Wind_Speed
5 3 5 3 2 1 3 6 12 12 10 5 14 17 19 29 15 8 13 17 19 20 20 23 25 24 25 24 26 30 33 32 30 29 29 25 27 28 30 28 25 24 20 20
1 6 4 2 2 4 6 9 12 9 5 6 15 22 18 14 2 6 10 13 16 19 22 25 28 28 27 27 27 30 26 30 32 30 30 30 29 30 25 25 24 21 21 20
2 1 3 3 5 8 9 8 7 9 10 12 11 14 2 3 5 4 7 7 10 14 18 22 26 30 34 33 28 22 21 22 28 26 29 32 29 30 27 23 20 19 18 15
4 0 4 5 8 5 8 3 6 10 14 13 4 8 3 3 3 1 4 7 9 13 16 19 22 27 31 37 35 24 14 12 18 21 25 27 27 19 18 15 16 13 9 17
3 3 8 7 6 4 3 6 8 16 15 6 5 5 2 2 5 8 4 4 7 13 14 16 19 23 26 31 37 34 21 5 8 14 20 21 15 9 17 17 14 11 13 21
6 2 2 1 2 1 4 7 14 0 2 4 3 2 3 5 5 13 4 3 10 17 18 16 15 18 24 28 31 35 31 17 3 7 12 11 15 15 20 21 17 17 19 19
6 2 1 0 3 2 6 12 5 4 3 5 4 9 11 11 11 9 5 2 6 17 22 20 18 20 20 25 30 30 32 28 14 2 9 15 17 19 21 17 18 20 21 19
2 4 0 2 2 9 7 3 2 7 8 18 17 9 2 1 2 5 6 5 9 20 21 20 17 16 18 20 21 27 25 25 21 11 2 10 9 11 12 15 18 19 22 23
4 4 4 6 12 4 3 4 3 10 10 7 4 5 10 4 5 6 5 8 17 21 20 18 15 15 19 19 17 21 24 18 18 15 9 7 5 2 2 7 12 18 22 24
1 10 4 2 2 4 7 3 5 4 5 7 7 12 12 6 2 10 10 13 18 18 17 15 8 12 19 19 14 7 20 20 17 15 13 9 6 5 7 10 14 19 22 23
4 3 4 5 5 14 10 9 5 4 5 7 14 11 3 6 12 7 6 15 14 14 14 16 10 15 15 18 13 12 23 21 17 13 12 9 9 11 13 15 19 23 25 26
3 2 9 15 13 6 7 9 9 6 10 8 11 17 11 9 3 5 20 16 13 8 11 14 14 15 18 11 15 14 19 23 19 15 13 14 13 14 17 19 21 23 23 22
2 2 7 5 3 2 3 4 6 6 5 19 14 15 3 5 20 22 20 20 9 5 12 15 16 15 16 15 14 11 9 19 17 15 14 14 17 20 21 23 24 20 19 17
6 4 9 9 15 14 18 18 17 14 7 17 19 25 25 20 17 23 25 14 5 10 14 16 14 15 15 17 18 16 16 18 15 15 16 19 21 23 24 24 20 18 14 14
2 4 5 13 19 18 19 20 19 14 19 11 21 20 22 20 13 17 19 11 13 17 21 20 18 18 17 16 18 13 11 12 13 11 16 19 21 21 19 20 16 13 12 11
2 3 3 12 11 8 16 18 17 13 11 14 17 17 5 19 12 19 17 15 19 24 25 23 26 26 24 21 17 18 13 10 10 9 13 18 19 17 16 14 13 13 9 7
2 2 2 5 6 15 12 4 7 11 8 10 10 10 13 12 14 14 20 24 25 27 25 26 32 29 26 21 20 24 23 18 14 13 13 15 18 13 11 12 12 8 5 5
4 2 2 5 8 3 2 7 9 6 11 7 14 11 8 14 24 27 24 25 28 24 27 34 29 25 21 23 22 21 19 18 17 16 14 13 15 11 9 8 6 1 2 5
13 1 2 3 7 16 9 4 2 8 16 8 5 10 22 26 32 27 16 26 26 31 33 28 26 25 24 20 19 19 16 14 14 14 11 12 11 8 6 4 2 4 5 14
7 4 3 2 4 5 4 3 12 10 12 1 19 23 27 26 10 12 31 32 34 31 28 30 29 25 22 19 17 15 14 12 9 6 9 9 6 5 5 3 5 12 17 21
3 4 6 7 6 8 4 1 13 6 6 29 30 32 19 14 24 39 38 35 30 37 33 31 28 26 23 19 15 16 13 11 5 8 5 4 2 3 4 8 15 20 21 22
3 2 3 3 5 7 3 10 7 13 27 31 27 25 34 36 38 38 36 33 39 32 35 28 29 26 21 22 16 12 10 5 8 4 1 2 5 9 13 18 24 21 22 23
4 5 3 5 6 17 30 26 23 20 25 34 32 36 36 37 36 36 38 35 30 40 29 35 23 19 24 11 10 8 6 8 8 7 7 10 14 19 27 26 24 25 23 25
5 9 5 6 11 19 22 25 23 21 30 33 34 33 33 34 39 41 35 37 38 32 35 29 27 17 13 8 9 9 13 12 11 14 14 17 23 34 29 25 30 26 27 28
10 5 9 14 22 24 20 18 30 29 30 31 31 33 36 33 33 39 38 34 36 33 31 21 17 13 10 8 13 15 17 18 13 18 21 27 32 33 31 30 29 30 28 27
8 6 4 8 23 21 26 26 26 28 30 32 33 34 28 41 36 34 34 32 33 27 23 17 12 9 12 17 19 19 21 20 19 26 28 29 35 35 37 36 36 32 28 28
Wind_Direction
12 105 77 71 107 113 282 282 294 290 314 292 304 299 302 303 325 353 359 2 1 2 360 6 2 348 325 317 309 296 276 259 257 254 247 232 238 244 248 256 259 261 269 272
118 78 188 143 168 231 260 284 291 292 269 286 303 298 296 300 320 32 8 11 10 8 8 7 6 5 358 343 325 304 271 259 249 247 242 235 236 244 244 251 255 255 268 268
215 162 117 215 233 276 284 267 293 292 305 276 291 282 287 102 141 55 34 30 25 16 12 10 12 16 16 8 346 315 289 270 239 240 234 235 238 245 243 249 250 249 250 268
257 67 208 238 275 260 295 202 296 287 308 305 2 292 257 232 233 345 6 17 8 6 8 8 8 14 14 17 10 352 316 259 237 232 227 233 238 239 263 248 228 227 270 312
284 250 292 290 290 186 312 315 301 301 292 301 232 256 140 274 251 350 343 1 349 345 340 349 0 6 9 16 19 16 359 304 244 236 231 232 225 197 259 236 228 253 284 289
281 295 257 302 90 9 332 316 315 186 258 247 110 292 219 222 263 319 311 301 346 355 346 335 339 352 358 12 17 20 18 2 341 222 197 202 194 222 246 239 244 263 269 279
326 319 325 240 247 159 322 324 317 292 280 295 165 295 265 282 273 272 282 290 335 352 348 341 340 342 343 349 5 14 19 19 1 52 210 205 190 220 230 241 260 269 268 282
335 313 302 161 332 306 312 267 307 300 306 300 294 253 283 288 273 216 240 305 328 337 341 336 327 335 341 335 340 1 10 18 20 36 135 196 219 231 250 257 255 262 276 282
314 253 288 267 304 259 143 230 358 283 280 279 260 270 267 227 229 238 247 325 337 338 336 332 327 335 333 326 339 345 350 7 10 25 57 95 91 59 283 280 276 278 280 282
297 300 289 311 252 196 257 141 251 255 280 269 273 285 275 272 234 304 301 339 337 339 340 334 340 359 352 333 312 348 349 346 1 351 13 21 19 335 323 318 310 298 295 297
319 249 275 301 258 289 276 256 249 285 240 269 290 278 255 254 318 311 311 331 342 357 14 12 342 331 333 349 320 334 345 340 2 3 357 346 324 311 309 303 300 297 300 302
36 281 286 289 303 299 256 269 259 246 262 245 274 273 293 283 8 319 320 319 321 338 1 4 4 355 8 347 356 1 299 331 348 355 359 347 326 309 300 296 298 299 301 306
349 239 305 287 142 154 322 273 280 281 275 263 273 270 152 216 310 325 323 320 303 327 349 344 343 343 348 335 318 316 320 309 323 336 343 341 334 327 321 299 297 306 314 327
227 237 229 260 289 303 291 280 277 272 265 276 263 276 291 296 308 322 318 316 297 325 330 330 329 330 329 330 325 295 278 294 298 309 318 323 322 323 322 320 310 324 329 334
23 261 234 265 281 283 281 285 286 273 263 259 281 294 304 317 343 312 311 309 320 323 325 325 325 321 318 319 323 321 292 278 287 299 308 307 314 322 319 323 325 332 330 328
356 270 280 280 286 288 291 280 291 278 279 267 275 294 8 308 313 291 283 303 314 317 315 317 320 312 306 306 307 307 311 301 309 310 305 310 323 321 319 317 325 334 325 308
269 247 272 286 317 311 282 233 308 307 301 285 288 296 309 329 340 315 304 305 306 309 310 311 311 305 300 301 300 297 297 293 291 308 324 323 330 318 315 314 335 331 334 347
190 217 243 291 321 274 7 295 300 300 302 271 295 309 318 313 313 304 296 300 306 307 306 308 306 301 297 299 296 296 295 285 282 292 319 327 333 320 306 311 324 331 31 59
211 242 299 283 295 284 283 107 18 326 304 312 312 302 314 317 315 303 283 305 297 303 302 300 300 295 296 294 294 293 293 291 283 284 314 331 336 309 280 277 197 109 108 116
185 266 250 275 275 283 15 130 343 311 288 129 331 314 311 320 296 297 308 307 301 304 304 301 305 298 292 291 293 291 288 292 295 307 297 323 333 300 239 185 130 132 124 110
240 236 250 248 259 270 266 328 334 298 339 326 318 308 319 309 292 301 306 304 300 305 304 303 298 296 292 297 292 288 286 288 280 228 286 332 316 227 168 136 137 129 113 108
255 258 243 245 239 265 171 308 332 307 305 307 312 306 306 303 301 302 300 299 307 303 305 299 298 292 288 293 286 275 264 243 192 176 248 182 156 148 139 140 130 120 116 105
244 210 262 239 259 294 293 298 302 302 305 308 302 305 306 300 296 297 299 302 301 306 291 303 296 274 289 271 241 229 194 185 149 184 162 153 138 136 135 131 122 113 104 104
241 236 234 267 249 275 289 297 295 302 300 305 305 305 304 296 298 298 301 303 302 297 300 294 294 284 276 241 200 179 171 148 174 156 151 141 139 135 126 119 113 109 105 98
265 266 244 264 280 288 281 299 293 299 305 306 306 304 302 300 304 305 302 301 302 299 302 298 287 270 245 196 172 169 162 183 156 153 143 141 136 127 124 114 106 105 100 102
220 228 240 273 292 292 288 294 303 306 311 311 309 310 304 309 306 306 303 304 305 312 315 294 267 220 181 163 160 160 168 178 161 147 148 141 134 129 125 116 115 106 103 106
Height
1528 1526 1528 1528 1529 1530 1532 1533 1530 1524 1523 1523 1515 1512 1506 1500 1503 1502 1501 1499 1497 1494 1492 1487 1482 1477 1473 1470 1467 1465 1462 1464 1465 1466 1469 1472 1474 1476 1477 1479 1480 1481 1481 1481
1529 1528 1526 1529 1530 1531 1532 1531 1526 1523 1522 1523 1512 1507 1501 1500 1503 1503 1502 1501 1498 1494 1489 1484 1480 1475 1470 1465 1461 1457 1454 1454 1456 1459 1462 1465 1468 1470 1472 1473 1475 1477 1477 1476
1530 1527 1528 1529 1529 1530 1525 1527 1525 1526 1519 1516 1513 1500 1500 1501 1502 1503 1503 1502 1500 1497 1493 1488 1483 1477 1471 1463 1457 1451 1448 1445 1448 1451 1455 1459 1463 1465 1467 1468 1470 1471 1472 1472
1528 1527 1527 1528 1528 1527 1526 1525 1525 1523 1520 1517 1515 1505 1500 1499 1500 1501 1501 1500 1499 1497 1494 1491 1485 1479 1472 1466 1458 1450 1444 1442 1444 1445 1449 1453 1457 1463 1466 1466 1466 1466 1467 1465
1526 1525 1525 1526 1524 1526 1525 1525 1523 1521 1518 1521 1510 1514 1497 1500 1496 1494 1498 1499 1499 1497 1494 1490 1487 1481 1475 1467 1459 1451 1446 1442 1441 1442 1444 1449 1454 1457 1465 1464 1463 1463 1463 1462
1525 1526 1525 1524 1525 1526 1527 1524 1518 1525 1522 1517 1515 1516 1498 1495 1493 1493 1496 1497 1497 1496 1493 1490 1486 1481 1476 1468 1461 1454 1448 1444 1440 1440 1442 1446 1451 1453 1460 1460 1459 1459 1458 1456
1527 1524 1525 1526 1525 1526 1523 1523 1523 1518 1514 1513 1515 1514 1495 1492 1494 1494 1494 1495 1495 1494 1491 1488 1485 1480 1475 1470 1463 1456 1451 1447 1444 1441 1441 1445 1448 1451 1453 1456 1455 1454 1452 1452
1537 1531 1525 1525 1525 1526 1526 1526 1530 1535 1520 1510 1507 1508 1490 1492 1493 1494 1494 1495 1495 1493 1490 1486 1482 1479 1476 1470 1466 1460 1457 1454 1453 1448 1443 1445 1448 1449 1450 1451 1451 1450 1449 1447
1533 1533 1525 1524 1523 1525 1528 1527 1528 1529 1520 1524 1500 1498 1492 1490 1492 1493 1493 1494 1493 1491 1487 1483 1479 1477 1474 1471 1467 1465 1462 1459 1457 1453 1452 1450 1447 1446 1447 1448 1448 1447 1444 1442
1532 1532 1523 1524 1523 1522 1522 1523 1529 1530 1535 1518 1495 1498 1491 1487 1489 1489 1490 1492 1491 1489 1485 1481 1478 1475 1472 1468 1466 1463 1462 1460 1455 1454 1448 1446 1445 1447 1446 1446 1444 1442 1440 1438
1532 1537 1525 1525 1520 1518 1519 1520 1523 1529 1527 1519 1507 1488 1485 1487 1487 1489 1491 1491 1490 1488 1484 1479 1477 1475 1471 1468 1463 1461 1463 1462 1455 1452 1450 1448 1446 1445 1444 1443 1442 1439 1436 1433
1535 1534 1527 1521 1516 1521 1520 1518 1519 1526 1519 1518 1516 1494 1483 1486 1489 1491 1491 1489 1487 1486 1484 1481 1477 1475 1471 1469 1465 1462 1462 1462 1457 1453 1449 1447 1444 1443 1442 1441 1438 1435 1431 1429
1534 1535 1532 1515 1520 1519 1517 1520 1520 1522 1523 1514 1517 1486 1482 1485 1484 1487 1488 1487 1485 1484 1481 1479 1477 1473 1471 1469 1467 1465 1463 1462 1458 1454 1450 1448 1445 1443 1441 1438 1435 1431 1429 1426
1533 1534 1528 1525 1514 1519 1520 1516 1515 1518 1524 1502 1494 1484 1479 1482 1483 1487 1486 1483 1483 1482 1479 1477 1475 1471 1469 1467 1466 1461 1460 1459 1457 1454 1451 1447 1445 1443 1439 1436 1432 1430 1427 1425
1534 1532 1529 1524 1519 1518 1514 1510 1505 1509 1504 1511 1489 1488 1483 1484 1486 1485 1484 1482 1480 1478 1475 1473 1471 1468 1466 1463 1461 1458 1456 1455 1454 1451 1448 1445 1443 1442 1438 1435 1431 1428 1426 1424
1536 1532 1529 1522 1514 1514 1510 1504 1501 1498 1495 1493 1489 1485 1492 1488 1485 1483 1481 1479 1476 1473 1470 1468 1465 1464 1462 1458 1455 1453 1452 1450 1448 1447 1445 1443 1441 1439 1436 1433 1431 1428 1425 1423
1537 1535 1528 1514 1515 1511 1502 1494 1496 1493 1491 1491 1489 1486 1485 1485 1483 1481 1478 1475 1472 1469 1465 1463 1460 1456 1454 1453 1452 1450 1448 1447 1447 1444 1443 1442 1438 1437 1434 1433 1430 1427 1425 1423
1538 1537 1529 1523 1518 1514 1491 1493 1493 1494 1490 1488 1485 1484 1486 1484 1482 1478 1474 1471 1467 1464 1461 1458 1454 1450 1448 1445 1444 1443 1442 1442 1443 1442 1441 1441 1437 1436 1434 1432 1429 1428 1427 1425
1531 1529 1528 1527 1521 1504 1489 1492 1495 1494 1487 1485 1488 1485 1481 1479 1474 1468 1469 1467 1463 1460 1456 1452 1448 1445 1442 1440 1438 1436 1437 1438 1438 1439 1440 1437 1436 1435 1433 1431 1430 1431 1429 1428
1530 1531 1532 1525 1525 1506 1489 1494 1494 1491 1483 1487 1488 1483 1477 1474 1468 1464 1463 1460 1455 1452 1449 1445 1440 1437 1435 1434 1432 1432 1433 1434 1434 1436 1436 1436 1435 1434 1432 1432 1434 1434 1431 1432
1521 1521 1524 1517 1520 1499 1489 1493 1491 1494 1485 1486 1485 1480 1475 1472 1469 1456 1454 1450 1447 1443 1439 1436 1433 1430 1427 1428 1428 1427 1428 1429 1431 1434 1434 1434 1433 1433 1433 1435 1437 1436 1436 1438
1520 1520 1517 1517 1514 1503 1493 1492 1497 1490 1486 1483 1479 1475 1469 1462 1455 1450 1444 1440 1436 1432 1430 1427 1425 1422 1421 1421 1422 1423 1425 1428 1430 1432 1432 1433 1433 1434 1436 1438 1440 1441 1443 1442
1520 1515 1518 1516 1496 1491 1491 1490 1489 1487 1482 1477 1472 1467 1462 1454 1446 1440 1434 1431 1427 1424 1420 1418 1415 1415 1414 1414 1416 1419 1422 1425 1429 1430 1432 1434 1436 1437 1440 1442 1445 1447 1449 1449
1513 1511 1511 1511 1492 1490 1488 1487 1484 1481 1476 1470 1465 1459 1454 1446 1438 1431 1426 1422 1417 1414 1410 1408 1407 1407 1407 1410 1413 1417 1421 1426 1428 1431 1433 1435 1438 1442 1446 1449 1453 1452 1454 1456
1511 1509 1502 1495 1490 1485 1483 1481 1476 1472 1469 1462 1457 1452 1444 1438 1430 1425 1418 1413 1409 1404 1399 1397 1398 1399 1402 1406 1411 1416 1421 1425 1429 1431 1434 1439 1443 1447 1451 1455 1459 1462 1463 1466
1501 1497 1497 1488 1484 1483 1477 1473 1470 1465 1460 1455 1448 1441 1436 1431 1423 1417 1411 1405 1399 1394 1389 1388 1390 1392 1398 1404 1409 1415 1420 1425 1429 1432 1437 1442 1447 1452 1456 1460 1462 1468 1472 1475